Location: Unspecified
(22.6800°N, 112.2000°E)
Time: 00:54:52
(UTC+08:00)

Explorer 7 - All Passes

Search period start: 29 July 2021 00:00
Search period end: 08 August 2021 00:00
Orbit: 484 x 676 km, 50.3° (Epoch: 27 July)

Date Brightness Start Highest point End Pass type
(mag) Time Alt. Az. Time Alt. Az. Time Alt. Az.
29 Jul - 04:55:40 10° SW 04:59:22 82° SE 05:03:11 10° NE visible
29 Jul - 13:26:27 10° NNW 13:30:39 35° NE 13:35:02 10° ESE daylight
29 Jul - 15:07:20 10° WNW 15:11:03 23° SW 15:14:52 10° S daylight
30 Jul - 03:23:19 10° SE 03:23:38 10° SE 03:23:57 10° ESE visible
30 Jul - 05:00:05 10° WSW 05:03:41 46° NW 05:07:21 10° NNE visible
30 Jul - 13:30:28 10° NW 13:34:59 64° NE 13:39:44 10° SE daylight
30 Jul - 15:13:14 10° W 15:15:14 13° SW 15:17:15 10° SSW daylight
31 Jul - 03:24:56 10° S 03:27:48 21° SE 03:30:40 10° ENE visible
31 Jul - 05:05:01 10° W 05:08:05 24° NW 05:11:11 10° NNE visible
31 Jul - 11:56:07 10° N 11:58:31 14° NE 12:00:58 10° ENE daylight
31 Jul - 13:34:44 10° NW 13:39:16 69° SW 13:44:02 10° SSE daylight
01 Aug - 03:28:26 10° SSW 03:31:59 44° SE 03:35:34 10° NE visible
01 Aug - 05:10:40 10° WNW 05:12:33 13° NW 05:14:28 10° N visible
01 Aug - 11:59:25 10° N 12:03:00 23° NE 12:06:42 10° E daylight
01 Aug - 13:39:19 10° WNW 13:43:31 36° SW 13:47:54 10° SSE daylight
02 Aug - 03:32:31 10° SW 03:36:15 83° NW 03:39:59 10° NE visible
02 Aug - 12:03:12 10° NNW 12:07:23 39° NE 12:11:46 10° ESE daylight
02 Aug - 13:44:23 10° W 13:47:44 20° SW 13:51:09 10° S daylight
03 Aug - 01:58:52 10° SSE 02:00:26 12° SE 02:02:01 10° E night (unlit)
03 Aug - 03:37:03 10° WSW 03:40:33 38° NW 03:44:05 10° NNE visible
03 Aug - 12:07:16 10° NW 12:11:41 74° NE 12:16:22 10° SE daylight
03 Aug - 13:51:20 10° WSW 13:51:54 10° SW 13:52:29 10° SW daylight
04 Aug - 02:01:29 10° S 02:04:37 25° SE 02:07:43 10° ENE night (unlit)
04 Aug - 03:42:06 10° W 03:44:57 20° NW 03:47:49 10° N visible
04 Aug - 10:32:45 10° N 10:35:18 15° NE 10:37:56 10° ENE daylight
04 Aug - 12:11:36 10° NW 12:15:57 59° SW 12:20:34 10° SSE daylight
05 Aug - 02:05:09 10° SSW 02:08:49 53° SE 02:12:28 10° NE night (unlit)
05 Aug - 03:48:08 10° WNW 03:49:27 11° NW 03:50:45 10° NNW visible
05 Aug - 10:36:09 10° NNW 10:39:45 25° NE 10:43:30 10° E daylight
05 Aug - 12:16:17 10° WNW 12:20:12 31° SW 12:24:18 10° S daylight
06 Aug - 02:09:20 10° SW 02:13:06 69° NW 02:16:49 10° NE night (unlit)
06 Aug - 10:39:59 10° NNW 10:44:06 44° NE 10:48:28 10° ESE daylight
06 Aug - 12:21:34 10° W 12:24:24 17° SW 12:27:19 10° SSW daylight
07 Aug - 00:35:02 10° SSE 00:37:14 15° SE 00:39:25 10° E night (unlit)
07 Aug - 02:14:00 10° WSW 02:17:25 32° NW 02:20:49 10° NNE visible
07 Aug - 10:44:06 10° NW 10:48:24 85° NE 10:52:58 10° SE daylight
